Kitchener, Ontario

4:33 PM EST on February 27, 2017 (GMT -0500)
Kitchener-Waterloo Regional

Weather History for CYKF - December, 2013

Change the Weather History Date:

Tuesday, December 17, 2013

  Actual Average Record
Temperature  
Mean Temperature 7 °F -  
Max Temperature 23 °F 28 °F 50 °F (2006)
Min Temperature -9 °F 17 °F -9 °F (2013)
Degree Days  
Heating Degree Days 58    
Moisture  
Dew Point 12 °F    
Average Humidity 90    
Maximum Humidity 100    
Minimum Humidity 76    
Precipitation  
Precipitation 0.03 in 0.09 in - ()
Sea Level Pressure  
Sea Level Pressure 29.96 in    
Wind  
Wind Speed 4 mph ()    
Max Wind Speed 10 mph    
Max Gust Speed 17 mph    
Visibility 4.2 miles    
Events Snow    
Averages and records for this station are not official NWS values.
T = Trace of Precipitation, MM = Missing Value Source: Averaged Metar Reports

Daily Weather History Graph

Daily Weather History Graph

Search for Another Location

Airport or City:

Trip Planner

Search our weather history database for the weather conditions in past years. The results will help you decide how hot, cold, wet, or windy it might be!

Date:

Astronomy

Dec. 17, 2013 Rise Set
Actual Time 7:49 AM EST 4:46 PM EST
Civil Twilight 7:16 AM EST 5:19 PM EST
Nautical Twilight 6:40 AM EST 5:55 PM EST
Astronomical Twilight 6:05 AM EST 6:30 PM EST
Moon 5:27 PM EST (12/17) 7:42 AM EST (12/17)
Length of Visible Light 10h 03m
Length of Day
8h 57m
Full, 100% of the Moon is Illuminated
Dec 17
Full
Dec 25
Last Quarter
Jan 1
New
Jan 7
First Quarter
Jan 15
Full

Hourly Weather History & Observations

Time (EST) Temp. Windchill Dew Point Humidity Pressure Visibility Wind Dir Wind Speed Gust Speed Precip Events Conditions
12:00 AM -7.6 °F -16.5 °F -11.2 °F 84% 30.13 in 9.0 mi ENE 3.5 mph - N/A Snow Light Snow
12:43 AM -5.8 °F - -9.4 °F 84% 30.10 in 9.0 mi Calm Calm - N/A   Overcast
1:00 AM -4 °F - -8 °F 76% 30.09 in 10 mi NNW 2.3 mph - -   Overcast
1:00 AM -4.0 °F - -7.6 °F 85% 30.09 in 9.0 mi Variable 2.3 mph - N/A   Overcast
1:20 AM -2.2 °F - -5.8 °F 85% 30.08 in 9.0 mi Calm Calm - N/A Snow Light Snow
2:00 AM 5.0 °F -2.1 °F 1.4 °F 85% 30.05 in 9.0 mi ENE 3.5 mph - N/A Snow Light Snow
2:52 AM 5.0 °F -2.1 °F 1.4 °F 85% 30.05 in 9.0 mi NNW 3.5 mph - N/A   Mostly Cloudy
3:00 AM 5.0 °F -4.1 °F 1.4 °F 85% 30.05 in 9.0 mi WNW 4.6 mph - N/A   Mostly Cloudy
3:23 AM 5.0 °F -4.1 °F 3.2 °F 92% 30.03 in 9.0 mi Variable 4.6 mph - N/A Snow Light Snow
3:27 AM 5.0 °F -4.1 °F 3.2 °F 92% 30.02 in 4.0 mi Variable 4.6 mph - N/A Snow Light Snow
3:29 AM 5.0 °F -2.1 °F 3.2 °F 92% 30.02 in 2.5 mi NW 3.5 mph - N/A Snow Light Snow
3:33 AM 5.0 °F - 3.2 °F 92% 30.02 in 1.8 mi NW 2.3 mph - N/A Snow Light Snow
3:46 AM 6.8 °F - 3.2 °F 85% 30.02 in 1.5 mi WNW 2.3 mph - N/A Snow Light Snow
4:00 AM 6.8 °F -0.1 °F 3.2 °F 85% 30.01 in 1.2 mi WNW 3.5 mph - N/A Snow Light Snow
5:00 AM 8.6 °F - 6.8 °F 92% 29.98 in 0.8 mi East 2.3 mph - N/A Snow Light Snow
5:12 AM 8.6 °F 0.1 °F 6.8 °F 92% 29.97 in 2.0 mi East 4.6 mph - N/A Snow Light Snow
5:18 AM 10.4 °F 2.2 °F 8.6 °F 92% 29.96 in 3.0 mi East 4.6 mph - N/A Snow Light Snow
5:30 AM 12.2 °F 0.7 °F 10.4 °F 92% 29.96 in 5.0 mi East 8.1 mph - N/A Snow Light Snow
5:43 AM 14.0 °F 3.9 °F 12.2 °F 93% 29.96 in 7.0 mi East 6.9 mph - N/A Snow Light Snow
5:49 AM 14.0 °F 5.1 °F 12.2 °F 93% 29.96 in 5.0 mi East 5.8 mph - N/A Snow Light Snow
6:00 AM 14.0 °F 5.1 °F 12.2 °F 93% 29.97 in 3.0 mi East 5.8 mph - N/A Snow Light Snow
6:24 AM 14.0 °F 8.2 °F 12.2 °F 93% 29.97 in 2.2 mi East 3.5 mph - N/A Snow Light Snow
6:28 AM 14.0 °F - 12.2 °F 93% 29.97 in 1.8 mi East 2.3 mph - N/A Snow Light Snow
6:42 AM 14.0 °F 5.1 °F 12.2 °F 93% 29.96 in 2.0 mi East 5.8 mph - N/A Snow Light Snow
6:46 AM 14.0 °F 3.9 °F 12.2 °F 93% 29.95 in 1.8 mi East 6.9 mph - N/A Snow Light Snow
6:51 AM 14.0 °F 6.5 °F 12.2 °F 93% 29.95 in 2.0 mi East 4.6 mph - N/A Snow Light Snow
6:57 AM 14.0 °F 6.5 °F 12.2 °F 93% 29.96 in 3.0 mi East 4.6 mph - N/A Snow Light Snow
7:00 AM 14 °F - 12 °F 86% 29.97 in 4 mi East 4.6 mph - - Snow Light Snow
7:00 AM 14.0 °F 6.5 °F 12.2 °F 93% 29.97 in 4.0 mi East 4.6 mph - N/A Snow Light Snow
7:30 AM 14.0 °F 6.5 °F 12.2 °F 93% 29.95 in 6.0 mi NE 4.6 mph - N/A Snow Light Snow
7:31 AM 14.0 °F 6.5 °F 12.2 °F 93% 29.95 in 6.0 mi ENE 4.6 mph - N/A Snow Light Snow
7:53 AM 14.0 °F 8.2 °F 12.2 °F 93% 29.95 in 5.0 mi ENE 3.5 mph - N/A Snow Light Snow
8:00 AM 14.0 °F 5.1 °F 12.2 °F 93% 29.96 in 5.0 mi ENE 5.8 mph - N/A Snow Light Snow
8:03 AM 14.0 °F 6.5 °F 12.2 °F 93% 29.96 in 7.0 mi NE 4.6 mph - N/A Snow Light Snow
8:26 AM 14.0 °F 8.2 °F 12.2 °F 93% 29.95 in 5.0 mi ENE 3.5 mph - N/A Snow Light Snow
8:37 AM 14.0 °F - 12.2 °F 93% 29.96 in 2.5 mi Variable 2.3 mph - N/A Snow Light Snow
9:00 AM 14.0 °F - 12.2 °F 93% 29.97 in 2.0 mi North 2.3 mph - N/A Snow Light Snow
9:21 AM 14.0 °F 8.2 °F 12.2 °F 93% 29.97 in 1.8 mi NNW 3.5 mph - N/A Snow Light Snow
9:48 AM 14.0 °F - 12.2 °F 93% 29.98 in 2.0 mi NW 2.3 mph - N/A Snow Light Snow
10:00 AM 14.0 °F - 12.2 °F 93% 29.98 in 2.0 mi West 2.3 mph - N/A Snow Light Snow
10:02 AM 14.0 °F 8.2 °F 12.2 °F 93% 29.98 in 1.8 mi West 3.5 mph - N/A Snow Light Snow
10:38 AM 15.8 °F 10.2 °F 12.2 °F 86% 29.98 in 2.2 mi WNW 3.5 mph - N/A Snow Light Snow
10:41 AM 15.8 °F - 12.2 °F 86% 29.98 in 3.0 mi WNW 2.3 mph - N/A Snow Light Snow
10:48 AM 15.8 °F - 12.2 °F 86% 29.98 in 6.0 mi West 2.3 mph - N/A Snow Light Snow
10:54 AM 15.8 °F - 12.2 °F 86% 29.98 in 8.0 mi West 2.3 mph - N/A   Overcast
11:00 AM 15.8 °F - 14.0 °F 93% 29.99 in 8.0 mi Calm Calm - N/A Snow Light Snow
11:44 AM 19.4 °F 9.5 °F 15.8 °F 86% 29.97 in 7.0 mi SW 8.1 mph - N/A Snow Light Snow
11:49 AM 19.4 °F 10.4 °F 15.8 °F 86% 29.96 in 5.0 mi SW 6.9 mph - N/A Snow Light Snow
12:00 PM 19.4 °F 8.6 °F 15.8 °F 86% 29.96 in 5.0 mi SW 9.2 mph - N/A Snow Light Snow
12:09 PM 19.4 °F 7.9 °F 15.8 °F 86% 29.95 in 5.0 mi SW 10.4 mph - N/A Snow Light Snow
12:52 PM 19.4 °F 8.6 °F 15.8 °F 86% 29.94 in 5.0 mi SSW 9.2 mph - N/A   Overcast
1:00 PM 20 °F - 17 °F 82% 29.93 in 5 mi SSW 8.1 mph - -   Mist
1:00 PM 19.4 °F 10.4 °F 17.6 °F 93% 29.93 in 5.0 mi SSW 6.9 mph - N/A   Overcast
1:10 PM 21.2 °F 10.9 °F 17.6 °F 86% 29.92 in 6.0 mi SSW 9.2 mph - N/A   Overcast
2:00 PM 21.2 °F 10.1 °F 17.6 °F 86% 29.91 in 9.0 mi SW 10.4 mph 17.3 mph N/A   Overcast
2:49 PM 21.2 °F 11.7 °F 17.6 °F 86% 29.91 in 7.0 mi SSW 8.1 mph - N/A Snow Light Snow
2:51 PM 21.2 °F 12.6 °F 17.6 °F 86% 29.91 in 5.0 mi SSW 6.9 mph - N/A Snow Light Snow
2:55 PM 21.2 °F 10.9 °F 19.4 °F 93% 29.90 in 2.0 mi SSW 9.2 mph - N/A Snow Light Snow
2:56 PM 21.2 °F 10.9 °F 17.6 °F 86% 29.90 in 1.8 mi SSW 9.2 mph - N/A Snow Light Snow
3:00 PM 21.2 °F 11.7 °F 19.4 °F 93% 29.90 in 1.0 mi SSW 8.1 mph - N/A Snow Light Snow
4:00 PM 21.2 °F 12.6 °F 19.4 °F 93% 29.91 in 1.0 mi SSW 6.9 mph - N/A Snow Light Snow
5:00 PM 21.2 °F 14.9 °F 19.4 °F 93% 29.91 in 1.2 mi South 4.6 mph - N/A Snow Light Snow
5:30 PM 21.2 °F 16.4 °F 19.4 °F 93% 29.90 in 1.8 mi South 3.5 mph - N/A Snow Light Snow
6:00 PM 21.2 °F 16.4 °F 19.4 °F 93% 29.91 in 1.8 mi SSW 3.5 mph - N/A Snow Light Snow
6:06 PM 21.2 °F - 19.4 °F 93% 29.91 in 2.0 mi SSW 2.3 mph - N/A Snow Light Snow
6:16 PM 21.2 °F 16.4 °F 19.4 °F 93% 29.91 in 1.8 mi South 3.5 mph - N/A Snow Light Snow
6:43 PM 19.4 °F 14.3 °F 17.6 °F 93% 29.91 in 2.0 mi South 3.5 mph - N/A Snow Light Snow
6:46 PM 19.4 °F - 17.6 °F 93% 29.91 in 2.0 mi South 2.3 mph - N/A Snow Light Snow
6:56 PM 19.4 °F - 17.6 °F 93% 29.91 in 3.0 mi Calm Calm - N/A Snow Light Snow
7:00 PM 19 °F - 18 °F 93% 29.92 in 3 mi ESE 1.2 mph - - Snow Light Snow
7:00 PM 19.4 °F - 17.6 °F 93% 29.91 in 3.0 mi Calm Calm - N/A Snow Light Snow
7:26 PM 19.4 °F - 17.6 °F 93% 29.92 in 2.2 mi Variable 2.3 mph - N/A Snow Light Snow
7:39 PM 19.4 °F 14.3 °F 17.6 °F 93% 29.92 in 2.5 mi South 3.5 mph - N/A Snow Light Snow
7:42 PM 19.4 °F 12.8 °F 19.4 °F 100% 29.92 in 3.0 mi SSW 4.6 mph - N/A Snow Light Snow
8:00 PM 21.2 °F 14.9 °F 19.4 °F 93% 29.92 in 3.0 mi SW 4.6 mph - N/A Snow Light Snow
8:25 PM 23.0 °F 12.4 °F 19.4 °F 86% 29.93 in 5.0 mi WSW 10.4 mph - N/A Snow Light Snow
8:26 PM 23.0 °F 12.4 °F 19.4 °F 86% 29.93 in 5.0 mi WSW 10.4 mph - N/A Snow Light Snow
8:27 PM 23.0 °F 13.1 °F 19.4 °F 86% 29.92 in 5.0 mi WSW 9.2 mph - N/A Snow Light Snow
9:00 PM 23.0 °F 14.7 °F 19.4 °F 86% 29.92 in 5.0 mi WSW 6.9 mph - N/A Snow Light Snow
10:00 PM 23.0 °F 14.7 °F 19.4 °F 86% 29.93 in 4.0 mi WSW 6.9 mph - N/A Snow Light Snow
11:00 PM 23.0 °F 13.9 °F 19.4 °F 86% 29.93 in 3.0 mi WSW 8.1 mph - N/A Snow Light Snow